Location: Indian Head
(44.0967°N, 71.6979°W)
Time: 22:45:46
(UTC+00:00)

Daily predictions for brighter satellites

Satellite Brightness Start Highest point End
(mag) Time Altitude Azimuth Time Altitude Azimuth Time Altitude Azimuth
CENTAUR R/B 3.5 21:32:24 10° WSW 21:37:45 40° NW 21:44:25 10° NNE
Cosmos 1867 4.5 21:33:42 10° NNW 21:38:23 28° NE 21:43:03 10° E
Lacrosse 4 Rocket 3.4 21:36:32 10° WSW 21:39:46 22° NW 21:42:57 10° N
Cosmos 1315 Rocket 3.7 21:37:50 10° SSW 21:41:33 49° WNW 21:45:17 10° N
Cosmos 1092 Rocket 4.4 21:36:25 10° NNW 21:42:32 69° W 21:48:36 10° S
Cosmos 773 Rocket 4.0 21:39:20 10° NNW 21:44:31 61° ENE 21:49:42 10° SSE
Cosmos 1743 2.9 21:41:49 10° N 21:44:50 35° ENE 21:47:50 10° SE
Cosmos 2297 Rocket 2.4 21:40:55 10° NNW 21:46:28 52° ENE 21:51:58 10° SE
Cosmos 1758 Rocket 3.4 21:47:07 10° N 21:51:25 69° E 21:55:40 10° SSE
Cosmos 2098 Rocket 3.0 21:47:37 10° S 21:51:29 62° E 21:56:07 10° NNE
BREEZE-M DEB (TANK) 3.7 21:49:33 10° WNW 21:52:18 42° N 21:59:24 10° ENE
Intercosmos 24 3.6 21:49:51 10° N 21:53:39 90° N 21:57:12 10° S
Cosmos 2151 3.3 21:50:01 10° N 21:53:58 42° ENE 21:57:55 10° SSE
ARIANE 5 R/B 2.7 21:51:27 10° SE 21:56:17 48° ENE 22:01:12 10° N
Cosmos 1607 4.0 21:56:31 10° NNW 22:02:42 63° NE 22:08:56 10° SE
USA 215 4.4 21:57:37 10° NE 22:03:01 29° N 22:08:26 10° WNW
CZ-4C R/B 3.1 21:57:08 10° NNW 22:03:59 56° NE 22:12:26 10° SE
Cosmos 2208 Rocket 4.0 22:00:14 10° NNW 22:05:26 88° WSW 22:10:37 10° SSE
IGS 5A 3.9 22:02:06 10° S 22:06:01 63° W 22:09:58 10° NNW
SPOT 1/Viking Rocket 4.3 22:02:36 10° SE 22:07:04 30° ENE 22:11:33 10° N
Cosmos 1980 Rocket 3.4 22:06:24 10° SSE 22:10:32 21° E 22:13:23 15° ENE
Cosmos 1933 3.6 22:08:03 10° SSE 22:11:39 40° E 22:15:15 10° NNE
BlueWalker 3 2.4 22:10:03 10° WNW 22:13:38 58° SW 22:17:11 10° SE
SJ-12 3.7 22:10:30 10° SSE 22:14:11 57° ENE 22:17:54 10° N
Meteor 1-28 Rocket 4.3 22:11:09 10° N 22:14:19 39° WNW 22:17:26 10° SW
Cosmos 2266 Rocket 3.9 22:08:20 10° N 22:14:28 66° E 22:20:28 10° SSE
Cosmos 1626 Rocket 4.3 22:10:20 10° NNW 22:14:35 55° W 22:18:45 10° S
Cosmos 1076 Rocket 4.4 22:13:33 10° NNE 22:17:10 26° ENE 22:20:46 10° SE
NOSS 2-3 (E) 4.1 22:14:46 10° S 22:18:03 30° ESE 22:19:50 20° ENE
AQUARIUS 4.2 22:13:53 10° SSE 22:18:10 56° ENE 22:22:30 10° N
Cosmos 2084 Rocket 3.6 22:14:43 10° NNW 22:18:50 49° NE 22:22:55 10° ESE
MOS 1 Rocket 3.5 22:15:09 10° SSE 22:19:53 57° ENE 22:24:55 10° N
NOSS 2-3 (D) 4.1 22:16:37 10° S 22:19:54 29° ESE 22:21:33 21° ENE
Cosmos 1606 Rocket 3.7 22:16:50 10° SSE 22:21:05 51° E 22:25:23 10° NNE
CORIOLIS 4.4 22:17:34 10° S 22:22:52 74° WSW 22:28:14 10° NNW
CZ-2D R/B 4.3 22:20:35 10° SE 22:24:13 29° ENE 22:27:49 10° N
Cosmos 2263 Rocket 3.0 22:19:24 10° N 22:24:18 29° NE 22:28:38 12° ESE
Cosmos 783 Rocket 4.5 22:20:32 10° NNW 22:25:49 65° ENE 22:31:04 10° SSE
SOZ 3.6 22:23:14 10° WSW 22:26:06 79° NNW 22:26:49 35° NE
GEOS 3 Rocket 4.3 22:22:58 10° NNE 22:28:10 52° NW 22:33:22 10° WSW
Lacrosse 5 rocket 3.4 22:26:51 10° NW 22:28:54 14° NNW 22:30:45 11° NNE
COSMO-SKYMED 1 3.5 22:28:14 22° ENE 22:29:17 25° E 22:32:42 10° SSE
Cosmos 1900 4.3 22:26:21 10° NNW 22:31:23 63° NE 22:36:16 10° SE
Resurs 1-3 4.3 22:27:48 10° SE 22:31:29 28° ENE 22:35:11 10° N
SL-16 R/B 3.8 22:26:30 10° N 22:32:14 40° WNW 22:37:56 10° SW
Cosmos 1461 3.0 22:30:04 10° SW 22:33:55 64° NW 22:36:44 18° NNE
Cosmos 2227 Rocket 2.2 22:32:08 10° NNW 22:37:42 57° ENE 22:43:15 10° SE
SJ-6F 4.2 22:36:21 10° SSE 22:40:18 83° ENE 22:44:20 10° NNW
NOSS 3-2 (C) 3.4 22:35:34 10° SW 22:40:31 65° NW 22:45:17 16° NNE
Cosmos 1503 Rocket 4.3 22:36:12 10° SSW 22:41:24 67° WNW 22:46:37 10° NNE
Okean 1-7 Rocket 3.6 22:38:19 10° N 22:42:43 79° W 22:47:04 10° S
Cosmos 1726 Rocket 3.6 22:41:33 10° S 22:46:10 71° E 22:50:44 10° NNE
SL-19 R/B 4.4 22:43:57 10° SE 22:48:59 44° ENE 22:54:17 10° N
BREEZE-M DEB (TANK) 4.2 22:41:07 10° SSW 22:49:40 35° SE 22:51:40 26° E
Cosmos 1354 Rocket 4.1 22:44:31 10° SSW 22:49:48 81° WNW 22:54:33 13° NNE
Cosmos 1697 Rocket 2.7 22:45:44 10° SSW 22:51:20 83° WNW 22:55:57 16° NNE
USA 290 4.4 22:50:06 10° NW 22:52:58 29° WSW 22:55:50 10° SSW
SKYMED 2 3.4 22:51:14 17° NNE 22:54:33 74° ESE 22:58:52 10° S
Spot 4 Rocket 4.0 22:49:53 10° SSE 22:54:51 56° ENE 22:59:52 10° N
Meteor 2-20 4.4 22:51:56 10° S 22:58:02 69° E 23:04:09 10° NNE
ATLAS CENTAUR R/B 3.7 22:56:02 10° WNW 22:58:19 18° WSW 23:00:34 10° SSW
YAOGAN 1 2.5 22:55:23 10° SSE 22:59:33 57° ENE 23:03:44 10° N
IRAS Rocket 4.2 22:56:18 10° SE 23:01:38 55° ENE 23:06:58 10° N
EXPRESS MD2 3.6 22:59:11 10° SSW 23:01:13 36° SSE 23:01:13 36° SSE
Cosmos 1898 Rocket 3.8 22:59:04 10° S 23:03:48 39° ESE 23:04:01 39° E
NOAA 15 4.5 23:01:59 10° SSE 23:07:15 76° ENE 23:12:33 10° N
Gbstr 26 Del rocket 2.7 23:04:18 10° WSW 23:08:17 66° NNW 23:08:45 59° NNE
Meteor 2-10 4.0 23:06:48 10° N 23:12:08 65° ENE 23:17:38 10° SSE
Cosmos-2242 3.1 23:10:42 10° S 23:14:15 53° SE 23:14:15 53° SE
Cosmos 1953 Rocket 3.6 23:11:43 10° N 23:16:11 83° W 23:20:37 10° S
Cosmos 1655 Rocket 4.1 23:10:40 10° N 23:16:55 79° W 23:23:06 10° S
Meteor 2-20 Rocket 4.3 23:13:52 10° S 23:20:08 73° E 23:24:55 17° NNE
Cosmos 1867 4.1 23:16:57 10° NW 23:22:17 58° WSW 23:27:36 10° SSE
Cosmos 2082 4.3 23:18:22 10° NNW 23:22:44 39° NNE 23:22:44 39° NNE
Meteor 1-26 Rocket 4.0 23:18:35 10° S 23:23:58 69° E 23:25:18 50° NE
Helios 1A Rocket 4.3 23:26:12 23° S 23:26:12 23° S 23:27:34 10° SSW
Cosmos 372 Rocket 3.8 23:20:09 10° SSW 23:25:18 77° ESE 23:26:07 62° NE
Cosmos 1937 Rocket 4.2 23:20:38 10° S 23:24:07 36° SE 23:24:07 36° SE
Aureole 1 Rocket 3.1 23:23:49 10° SSW 23:28:01 90° ENE 23:28:37 68° NNE
Cosmos 2297 Rocket 4.5 23:25:38 10° NW 23:30:06 24° WSW 23:34:33 10° SSW
NOSS 2-3 (C) 4.2 23:31:22 10° SW 23:34:00 42° W 23:34:00 42° W
NOAA 6 3.9 23:35:09 10° SSE 23:40:16 83° WSW 23:45:23 10° NNW
USA 238 DEB 3.4 23:34:30 10° SW 23:40:34 81° NW 23:42:20 51° NNE
USA 81 4.4 23:35:24 10° N 23:40:38 65° W 23:45:49 10° S
USA 238 3.4 23:34:36 10° SW 23:40:41 82° NW 23:42:24 52° NNE
Cosmos 2058 Rocket 3.5 23:38:50 10° SSW 23:43:15 60° W 23:43:32 59° WNW
USA 215 3.9 23:44:52 38° NNE 23:44:58 38° NNE 23:50:53 10° NW
Cosmos 2219 3.2 23:42:19 10° NNW 23:47:29 70° N 23:47:29 70° N
BREEZE-M DEB (TANK) 4.2 23:46:08 10° SW 23:52:08 46° S 23:52:08 46° S
Cosmos 1980 Rocket 2.6 23:48:26 10° SW 23:54:01 59° WNW 23:55:10 49° NNW
